Hourly Data Report for October 16, 2016

All times are specified in Local Standard Time (LST). Add 1 hour to adjust for Daylight Saving Time where and when it is observed.

RESOLUTE BAY A
NUNAVUT

74°43'01.000" N
94°58'10.000" W
67.70 m
2403498
71924
YRB

Download Data

Hourly Data (October 2016)
Hourly Data Report for October 16, 2016
Temp Definition
°C
Dew Point Temp Definition
°C
Rel Hum Definition
%
Wind Dir Definition
10's deg

Wind Spd Definition
km/h
Visibility Definition
km
Stn Press Definition
kPa
Hmdx Definition


Wind Chill Definition


Weather Definition


TIME
00:00 Legend Double Dagger -10.2 -11.5 90 9 18 24.1 99.71   -18 Cloudy
01:00 Legend Double Dagger -11.5 -13.4 86 11 20 14.5 99.73   -20 Snow
02:00 Legend Double Dagger -12.3 -14.2 86 11 21 14.5 99.74   -21 LegendNANA
03:00 Legend Double Dagger -11.8 -14.0 84 12 14 24.1 99.74   -19 Cloudy
04:00 Legend Double Dagger -11.8 -14.3 82 8 28 24.1 99.76   -22 LegendNANA
05:00 Legend Double Dagger -11.0 -13.5 82 8 26 24.1 99.76   -20 LegendNANA
06:00 Legend Double Dagger -10.8 -13.5 81 7 30 24.1 99.74   -21 Cloudy
07:00 Legend Double Dagger -11.5 -14.0 82 7 32 24.1 99.75   -22 Blowing Snow
08:00 Legend Double Dagger -13.1 -16.0 79 5 33 16.1 99.74   -24 Blowing Snow
09:00 Legend Double Dagger -12.1 -14.9 80 6 37 14.5 99.76   -23 Blowing Snow
10:00 Legend Double Dagger -12.9 -15.8 79 5 37 14.5 99.77   -24 Blowing Snow
11:00 Legend Double Dagger -11.8 -14.7 79 6 39 24.1 99.78   -23 Blowing Snow
12:00 Legend Double Dagger -11.3 -14.3 79 5 34 14.5 99.80   -22 Blowing Snow
13:00 Legend Double Dagger -12.2 -15.1 79 5 37 24.1 99.81   -23 Blowing Snow
14:00 Legend Double Dagger -11.3 -14.3 79 6 36 24.1 99.84   -22 Blowing Snow
15:00 Legend Double Dagger -11.9 -14.8 79 6 37 24.1 99.87   -23 Blowing Snow
16:00 Legend Double Dagger -12.2 -14.8 81 6 37 24.1 99.91   -23 Blowing Snow
17:00 Legend Double Dagger -12.9 -15.4 82 6 39 24.1 99.93   -25 LegendNANA
18:00 Legend Double Dagger -11.2 -13.8 81 6 33 16.1 99.96   -22 Cloudy
19:00 Legend Double Dagger -11.6 -14.2 81 5 23 24.1 100.00   -20 LegendNANA
20:00 Legend Double Dagger -10.9 -13.9 79 7 25 24.1 100.03   -20 LegendNANA
21:00 Legend Double Dagger -11.2 -14.6 76 5 22 24.1 100.04   -20 Mostly Cloudy
22:00 Legend Double Dagger -12.2 -15.0 80 4 22 24.1 100.06   -21 LegendNANA
23:00 Legend Double Dagger -13.6 -16.2 81 3 21 24.1 100.09   -23 LegendNANA

Notes on Data Quality.

Legend

  • E = Estimated
  • M = Missing
  • NA = Not Available
  • ‡ = Partner data that is not subject to review by the National Climate Archives
Date modified: